RH
25 35 54 97 98 98 100 100 100 100 100 100 100 99 98 96 92 39 32 40 53 60 33 23 22 20 16 18 15 19 27 46 60 63 70 84 86 80 92 84 77 90 91 93 97 97 88 95 93 88 97 96 98 97
19 21 33 85 100 100 100 100 100 100 100 100 99 99 98 93 62 40 43 70 68 56 29 21 16 11 12 12 13 14 18 41 51 59 82 91 94 84 82 86 60 74 82 85 92 90 97 97 97 97 96 96 96 95
18 20 33 99 97 100 100 99 100 99 100 99 98 98 94 46 57 82 83 74 66 44 27 23 15 15 14 13 13 14 14 22 44 63 52 72 73 57 84 78 71 41 23 29 42 56 71 71 85 97 94 96 96 96
22 18 29 93 83 100 100 100 100 98 99 98 98 96 80 63 92 69 74 70 51 26 16 17 17 14 14 12 10 9 9 12 24 22 26 49 45 49 80 71 28 24 40 52 44 25 36 34 61 61 40 50 78 88
24 18 28 91 95 97 100 99 99 99 99 98 97 95 93 92 73 74 73 45 27 16 16 15 15 16 13 7 6 6 8 10 17 24 21 25 24 39 38 38 34 53 67 86 63 57 67 37 34 38 44 44 39 40
20 16 28 93 100 100 99 99 99 97 97 95 96 95 93 73 69 60 46 27 15 16 16 16 14 8 12 27 24 25 24 26 26 24 21 20 23 54 66 65 56 73 75 80 82 72 75 77 63 56 57 61 62 70
32 48 100 100 100 100 98 97 96 96 94 95 94 97 81 62 67 40 20 19 17 15 17 10 8 20 32 22 13 20 29 36 43 58 46 45 51 96 98 76 74 69 66 76 94 91 65 71 76 74 77 78 77 77
98 100 100 98 97 97 97 96 96 94 92 94 93 85 94 94 40 21 20 18 18 18 12 9 12 19 17 23 38 56 61 68 73 87 80 80 86 96 91 73 75 81 80 80 87 90 90 81 77 76 75 73 76 80
99 98 96 97 97 96 96 96 95 96 93 90 97 94 60 33 26 22 22 22 19 14 11 11 11 16 57 59 60 64 66 81 79 87 86 88 100 99 86 90 94 95 86 73 67 77 80 78 74 72 72 68 63 65
97 96 96 97 94 94 94 96 94 94 96 98 95 80 77 50 27 26 23 18 11 13 16 16 26 71 52 57 56 52 78 92 100 94 99 100 100 100 100 99 98 95 92 83 72 70 71 74 76 77 81 82 73 55
96 96 96 94 95 96 98 96 95 96 95 95 94 73 36 30 30 26 14 10 15 36 51 76 78 75 70 55 53 53 63 76 97 96 100 100 100 99 97 94 93 84 84 88 92 94 93 87 83 78 76 80 79 79
96 96 96 94 97 99 97 96 94 93 95 80 40 34 36 32 18 11 12 14 19 62 90 91 84 82 76 66 40 61 66 81 80 94 99 98 98 96 90 89 90 86 86 88 93 93 92 92 96 92 86 80 79 73
96 94 96 96 97 96 95 95 94 93 61 44 44 42 20 16 12 11 27 50 69 84 85 91 94 80 60 32 40 59 90 82 88 97 99 98 96 96 94 91 91 87 86 91 94 99 100 100 100 97 96 96 94 89
98 97 96 97 96 96 95 92 76 61 57 53 30 13 12 13 14 24 51 79 90 93 92 86 42 15 29 64 65 70 82 96 100 98 97 96 96 92 94 97 95 88 84 91 95 98 98 97 95 98 96 96 98 95
97 97 97 96 95 91 89 79 72 61 47 18 13 13 13 13 23 53 70 86 75 40 19 16 21 47 64 72 78 94 100 98 97 97 96 95 97 98 96 94 93 90 84 88 92 95 96 97 96 96 96 96 98 97
97 96 96 94 92 81 81 74 63 45 19 15 14 14 12 13 18 25 22 17 17 18 15 22 49 75 80 87 97 94 98 96 96 95 96 100 98 97 95 95 95 94 93 94 94 96 99 98 95 95 96 96 96 97
94 93 91 91 75 71 70 66 39 20 16 16 17 16 18 19 20 20 19 18 21 27 51 66 83 81 92 100 100 100 95 96 95 95 93 93 96 96 95 96 96 96 96 97 95 97 97 97 97 97 96 96 98 97
96 86 81 80 78 76 69 37 22 18 18 20 21 22 21 20 19 19 23 28 39 58 81 86 86 83 82 88 97 91 98 100 97 94 94 94 97 96 95 96 96 97 97 97 97 96 97 96 96 94 96 95 97 95
74 73 77 80 78 65 35 24 20 21 24 22 21 21 21 21 23 27 38 58 70 84 92 89 81 77 74 76 81 89 91 92 90 94 95 99 97 96 96 96 97 98 97 97 98 98 97 95 96 96 96 97 94 96
86 78 81 81 58 34 24 23 24 26 24 27 23 26 25 27 30 45 53 51 66 81 86 85 82 91 95 97 100 97 95 93 94 98 97 98 97 97 97 97 96 97 93 75 85 97 99 97 97 97 96 97 97 94
85 76 74 53 28 25 27 31 33 34 30 28 33 34 37 36 35 34 43 52 54 70 78 89 91 92 93 91 94 94 97 97 97 97 97 97 98 98 98 97 95 93 77 50 38 35 33 42 61 73 92 96 96 97
77 58 28 25 28 29 32 33 41 41 42 44 41 42 38 35 36 48 67 72 72 76 90 93 93 94 94 94 96 97 98 98 98 98 98 97 98 98 98 96 92 58 41 35 32 30 27 26 26 26 26 24 24 26
33 30 34 34 34 34 34 31 38 44 48 45 40 43 42 40 45 54 59 61 63 67 90 94 94 94 96 97 98 98 98 98 98 98 98 98 98 98 98 98 96 68 38 30 26 25 24 23 24 22 22 22 23 22
35 35 38 37 34 34 35 36 43 44 46 49 53 55 56 55 52 54 48 49 60 73 96 96 98 97 98 98 98 97 97 97 98 98 98 99 98 97 95 87 62 40 33 29 26 27 27 27 25 27 28 27 28 28
38 37 39 40 39 35 37 38 41 48 53 57 58 57 60 63 63 59 51 36 48 61 95 97 99 98 98 98 98 98 98 98 98 98 99 99 98 96 81 45 37 34 35 36 38 42 41 39 37 35 33 34 35 34
37 40 44 41 39 38 41 43 50 57 63 65 59 59 66 74 68 59 47 44 46 52 95 97 98 98 98 98 98 98 98 98 98 99 98 97 92 70 47 45 49 49 48 49 48 48 48 47 45 42 40 39 38 37
42 44 46 47 48 50 52 54 59 63 67 62 56 63 79 81 70 65 62 56 52 56 83 98 98 98 98 98 98 98 99 99 99 98 96 81 68 60 56 54 53 52 51 49 48 47 46 45 44 44 44 43 43 42
48 50 51 52 54 58 60 62 63 59 50 53 70 85 91 81 78 82 76 69 63 62 75 100 99 98 98 99 99 99 100 99 98 95 84 75 66 61 58 54 51 48 46 43 43 40 38 37 35 34 34 34 35 36
54 55 55 55 59 62 64 63 59 53 56 73 92 99 97 91 92 92 91 84 76 71 71 98 100 100 99 99 99 100 100 99 96 92 82 73 67 62 57 52 49 48 48 49 48 46 45 43 40 37 37 35 32 29
59 54 58 64 67 69 66 62 57 60 70 83 94 93 92 93 94 97 97 96 93 89 87 96 100 100 100 100 100 100 100 99 94 84 78 76 72 64 56 51 49 50 52 53 51 49 47 43 39 38 38 39 39 38
50 56 64 70 67 60 56 58 66 76 83 89 90 84 83 87 96 100 99 99 100 100 100 100 100 100 100 100 100 100 100 100 96 90 88 86 82 77 75 72 67 64 63 61 61 60 59 52 48 44 42 42 44 47
54 54 55 56 55 58 68 81 88 91 92 89 86 83 90 91 92 90 94 98 100 100 100 100 100 100 100 100 100 100 100 100 100 98 94 89 86 84 85 85 84 78 70 66 65 62 61 57 54 51 47 43 42 43
64 58 51 56 66 74 85 92 94 96 93 92 88 90 90 88 89 86 90 93 97 100 100 100 100 100 100 100 100 100 100 100 100 100 97 92 87 84 83 87 85 83 80 75 69 66 65 64 62 60 56 52 48 42
Wind_Speed
50 50 51 50 44 43 43 42 40 47 52 54 53 39 30 26 23 21 23 22 24 23 19 21 20 15 17 19 20 19 18 12 12 9 4 4 8 9 7 8 8 4 6 7 11 11 12 11 4 4 5 8 10 15
44 46 48 50 47 44 47 51 47 44 55 56 50 36 31 21 20 23 24 25 23 17 16 19 18 20 20 19 18 19 16 17 10 9 9 7 11 13 16 13 17 12 11 16 13 11 7 13 16 12 18 19 19 17
38 40 41 42 45 44 45 49 55 57 53 52 41 33 20 21 23 23 22 23 19 17 16 15 9 13 17 14 15 19 18 18 23 24 24 22 23 20 18 16 21 27 24 30 33 39 35 34 32 29 30 25 19 20
39 38 36 41 44 47 47 52 56 50 49 43 35 25 20 24 23 19 21 18 17 15 15 17 8 10 19 21 24 27 22 23 22 24 24 23 26 19 19 21 33 35 33 28 29 22 27 42 43 44 43 38 37 36
38 37 36 42 44 48 53 56 51 47 43 32 26 20 21 22 19 20 17 16 15 11 10 12 21 21 19 18 16 18 14 15 21 23 22 22 25 30 32 27 29 21 9 15 25 23 27 23 22 26 32 33 35 40
39 36 35 40 44 49 53 47 41 34 26 24 20 22 14 17 17 16 15 15 14 12 13 12 14 14 11 4 3 3 1 4 12 20 22 26 23 18 15 25 27 20 17 24 30 24 26 28 26 29 33 33 31 31
33 28 32 44 50 47 41 35 32 28 22 21 22 16 15 17 17 14 12 12 15 14 14 8 7 6 4 4 8 11 12 13 17 21 24 22 19 18 23 30 24 21 19 21 24 30 29 27 27 26 28 30 33 32
27 36 45 44 40 37 34 32 24 25 20 18 16 18 18 14 12 12 13 13 14 15 13 4 5 5 6 10 9 10 12 13 16 16 17 15 13 11 11 15 20 26 30 32 34 35 37 40 39 37 37 36 34 29
44 37 33 32 31 28 28 28 27 20 18 17 19 14 10 12 12 13 13 15 15 14 7 6 5 4 2 6 7 9 11 9 11 12 9 10 10 7 15 23 28 32 36 40 42 46 49 51 48 41 40 40 40 38
25 29 32 29 27 26 27 21 19 20 20 19 15 13 12 13 13 13 13 15 14 9 7 5 5 5 1 6 8 12 7 4 7 6 10 7 7 15 18 23 31 34 39 45 48 44 37 36 34 28 26 27 32 41
36 34 30 27 21 19 18 18 19 21 19 17 12 10 10 9 10 10 7 5 3 2 4 8 7 2 5 10 13 7 6 6 4 2 4 4 8 11 17 24 30 34 37 37 38 37 35 35 34 33 29 26 28 30
32 29 25 19 19 18 15 16 18 17 13 10 10 10 9 7 6 6 5 4 4 3 6 5 3 4 10 14 7 7 7 5 2 5 4 5 8 17 22 24 27 32 36 35 33 32 29 29 31 31 29 30 31 29
28 26 28 27 19 17 12 14 16 14 12 10 9 8 7 8 6 6 7 5 5 7 6 4 7 10 11 8 7 6 5 4 6 5 4 5 14 19 22 24 25 31 35 32 28 25 24 22 23 27 26 24 24 20
25 32 27 20 17 13 11 12 12 12 10 9 7 7 5 5 6 6 7 8 7 6 5 6 10 11 14 9 5 5 5 5 4 4 2 13 17 21 23 26 28 29 34 33 29 23 20 20 22 19 17 14 9 5
26 24 21 17 14 10 10 13 12 11 10 6 5 5 6 5 5 7 7 7 5 6 10 12 11 10 9 6 4 4 4 5 3 2 13 13 16 20 23 25 26 27 31 34 31 25 21 19 21 16 11 8 7 8
30 23 16 13 10 11 12 12 11 10 8 5 5 5 5 6 6 5 5 7 10 12 13 10 6 4 4 4 5 5 4 3 5 13 14 16 18 20 21 22 24 25 27 30 32 29 25 23 22 20 16 9 5 2
20 15 12 11 12 13 13 12 9 7 5 4 5 6 6 5 6 8 10 11 12 11 8 5 3 4 3 5 5 6 7 10 11 11 17 20 20 18 19 20 21 21 23 25 26 28 28 24 20 17 14 13 10 6
17 12 12 14 14 13 11 8 6 4 6 6 6 6 8 9 9 9 9 10 10 10 8 7 8 13 8 10 15 15 15 16 18 21 24 21 17 15 16 17 18 17 19 20 22 22 23 25 26 27 24 21 17 14
15 15 16 15 13 10 6 5 5 4 4 3 4 5 6 7 7 8 9 9 9 10 11 12 7 10 15 21 25 24 24 25 22 22 19 14 12 11 13 15 14 12 13 16 17 18 20 21 23 24 25 23 23 23
16 13 12 11 9 5 4 4 4 3 3 2 1 3 5 7 8 7 9 10 11 12 13 16 17 18 18 18 20 21 21 19 18 14 11 9 8 9 10 9 7 11 15 17 18 18 15 14 15 17 18 18 19 21
12 10 10 7 5 5 3 2 2 3 4 5 4 7 9 9 10 10 10 12 13 12 15 15 16 17 16 14 14 15 15 13 12 10 8 7 7 8 8 5 7 10 11 11 12 12 12 14 17 19 19 17 17 16
10 9 8 8 6 3 1 2 3 4 6 9 8 8 10 8 8 8 9 9 10 9 12 12 12 10 8 8 7 6 6 6 7 6 5 5 6 7 5 3 7 8 8 9 10 10 11 12 13 14 13 14 15 15
13 14 11 6 2 1 1 2 2 3 4 5 5 7 7 7 7 8 7 8 10 10 10 8 6 5 4 2 0 2 3 3 3 3 3 4 5 5 3 2 4 6 8 9 9 10 10 11 11 11 12 12 13 13
13 9 5 2 2 1 3 3 4 5 5 6 7 7 9 10 10 11 11 8 8 8 7 5 4 3 2 1 0 1 2 2 2 2 3 5 5 2 2 5 6 6 6 6 7 8 10 10 10 11 11 11 11 11
9 6 3 3 1 2 3 3 3 4 3 4 6 8 8 9 11 14 15 12 8 8 6 5 5 4 4 2 2 2 2 2 2 2 3 3 2 4 3 3 3 4 5 6 8 9 9 9 9 9 10 10 10 10
5 5 4 3 3 3 3 4 4 5 7 8 7 7 10 10 8 7 7 7 8 7 5 6 5 5 4 3 3 2 2 2 2 3 2 4 5 3 2 3 4 4 6 7 7 8 9 9 9 9 9 9 8 8
5 4 4 5 7 8 8 8 9 9 10 10 12 11 8 4 5 6 7 7 7 6 7 6 6 6 5 4 4 3 3 3 4 4 5 5 5 5 5 6 6 7 8 8 9 9 9 9 9 9 9 9 10 10
8 7 7 8 9 10 10 11 11 11 8 8 8 6 4 3 4 7 8 8 7 6 8 8 7 7 6 5 4 5 6 6 6 6 7 6 6 6 5 5 5 6 6 7 8 9 10 10 10 10 10 10 10 11
10 10 11 10 10 11 11 11 11 12 12 12 11 11 11 11 12 13 12 11 10 8 7 9 8 8 7 6 6 7 8 9 9 8 6 5 3 3 2 2 3 4 5 6 7 9 11 12 14 14 13 13 12 12
13 12 12 11 11 12 12 12 13 13 13 12 11 11 12 12 12 11 10 10 10 8 8 9 9 9 8 8 8 10 10 10 9 7 6 4 3 3 3 4 4 4 5 6 7 9 11 13 15 15 14 13 12 11
9 10 12 12 13 12 13 14 14 14 12 11 10 10 10 11 11 11 9 8 7 6 7 8 8 8 9 10 11 12 13 11 8 6 4 1 2 3 5 6 7 6 7 7 8 9 11 12 13 14 13 13 12 12
8 10 10 11 11 12 13 13 12 10 9 8 8 8 7 6 4 3 3 4 4 5 6 7 8 9 10 12 14 15 13 11 8 6 4 2 1 3 5 6 7 8 8 8 8 9 9 10 11 13 15 15 15 14
9 9 9 9 9 10 9 7 7 6 6 6 6 6 6 5 4 3 3 4 4 4 5 6 7 9 12 14 15 15 12 10 8 7 5 5 5 5 6 6 7 8 10 10 10 11 11 11 12 14 15 16 17 17
Wind_Direction
247 245 246 248 244 249 243 252 259 260 261 261 260 263 267 267 270 265 268 268 284 290 284 282 281 276 281 281 281 284 295 286 283 281 272 257 260 261 269 245 279 271 283 251 241 242 265 268 279 1 276 241 318 296
249 249 243 242 244 245 250 259 254 261 257 255 256 256 261 259 256 249 261 277 284 279 272 270 272 273 278 275 277 280 273 270 262 263 260 258 260 279 280 279 270 280 251 287 262 246 250 249 300 286 288 282 276 276
249 249 244 238 243 252 246 258 255 254 251 250 248 254 240 234 242 259 272 281 278 280 279 276 256 281 280 276 281 285 280 270 258 265 276 271 273 284 283 285 283 286 287 283 283 273 273 267 269 279 299 288 277 280
247 246 242 238 237 252 252 258 252 247 244 245 250 241 220 232 264 263 274 271 274 279 286 273 211 285 288 279 278 277 270 261 258 264 273 272 276 282 276 283 297 299 302 307 295 306 289 265 267 277 278 275 279 278
245 243 239 233 235 247 248 245 246 235 237 241 231 219 220 244 257 266 263 266 270 269 266 258 288 295 295 292 284 280 272 252 255 264 269 273 282 283 290 296 300 323 299 298 291 298 297 292 276 272 278 281 280 278
238 235 232 232 239 249 238 235 226 233 224 207 204 216 230 244 249 252 255 260 270 272 285 295 286 286 291 299 23 23 49 232 266 271 277 278 288 282 279 288 310 315 286 293 298 302 304 306 302 291 290 293 289 283
233 225 228 234 230 225 218 224 227 221 200 200 217 227 223 231 241 242 249 262 271 283 303 303 276 248 245 287 307 303 298 289 286 284 281 286 294 280 277 285 309 291 301 301 304 306 308 306 303 299 294 290 285 282
219 222 218 215 214 216 218 225 203 187 193 200 201 209 223 221 234 244 256 268 283 298 302 240 210 220 280 296 309 306 301 292 292 286 291 306 293 286 269 287 295 302 308 311 308 301 299 301 299 296 294 292 289 288
202 198 201 209 206 195 176 176 174 184 189 201 210 195 199 223 238 248 261 274 280 277 263 226 215 270 285 331 328 323 306 307 293 291 306 291 293 249 277 293 298 305 308 311 306 303 301 298 298 295 287 280 278 278
212 187 169 169 168 167 172 180 183 191 197 187 175 185 207 228 245 262 274 283 276 269 251 218 195 161 324 354 345 344 322 317 293 306 308 286 260 272 278 286 301 305 305 307 307 308 305 299 298 298 294 288 275 267
151 161 163 163 167 172 178 187 193 192 176 172 178 192 214 226 257 272 254 239 233 149 134 139 155 168 354 352 341 328 306 290 266 323 279 272 236 285 301 312 315 321 323 321 315 314 313 310 308 306 303 294 286 275
156 162 176 179 173 175 175 177 169 155 151 169 186 208 231 244 231 221 217 211 175 157 154 157 197 301 319 328 323 308 286 255 251 239 256 249 276 318 321 324 326 332 334 331 324 318 314 308 307 308 308 299 290 275
161 176 187 183 170 166 172 158 143 146 169 186 201 219 222 213 208 208 195 175 171 177 190 221 265 297 309 307 289 272 256 254 276 242 236 246 317 321 325 331 336 343 343 338 332 324 321 321 320 317 316 314 303 282
166 175 171 167 162 164 159 140 155 169 176 187 202 227 217 203 202 198 189 178 194 207 236 267 291 289 298 298 244 246 257 277 247 242 253 315 326 332 332 337 341 347 351 352 348 347 345 342 340 335 341 351 5 106
164 173 170 168 160 162 160 169 172 177 183 193 204 222 209 193 181 174 172 177 203 258 285 298 295 289 287 245 226 239 245 243 242 295 325 324 329 335 340 340 344 350 355 359 1 1 3 4 4 3 5 36 82 107
166 165 162 161 168 172 171 174 177 182 193 200 207 189 176 182 194 197 220 262 282 289 296 302 296 272 250 225 213 231 252 254 315 325 328 333 333 335 338 342 348 353 358 3 7 10 14 19 20 21 17 19 44 58
159 164 171 184 184 178 173 175 178 186 189 193 178 196 194 223 254 270 278 280 280 285 293 294 242 242 237 239 228 240 251 284 302 315 328 326 321 326 336 343 346 352 2 7 9 18 25 29 39 42 45 48 46 39
176 173 165 167 168 170 173 176 182 189 185 187 213 240 261 271 277 279 279 278 281 283 280 274 264 246 233 244 237 251 262 278 287 295 306 308 305 320 334 340 341 352 4 5 10 19 27 33 39 47 44 44 45 50
151 156 162 164 166 170 175 189 193 194 188 201 244 265 276 284 283 283 279 281 280 279 280 283 278 276 276 268 264 265 272 279 284 286 287 284 294 321 332 338 338 357 13 12 10 17 23 32 42 46 50 50 54 58
150 152 158 164 169 174 190 182 185 195 182 229 216 291 292 284 282 277 280 283 283 284 286 290 297 293 281 271 264 264 269 273 285 287 277 277 300 320 327 325 358 28 33 24 24 28 31 36 46 49 52 57 62 65
147 162 168 173 186 192 203 206 214 229 244 234 251 295 300 293 286 288 289 282 280 287 300 303 301 299 280 271 268 271 273 267 264 260 259 271 296 312 313 327 27 21 21 18 19 24 31 34 42 47 51 57 63 63
163 171 174 170 168 176 189 251 257 262 267 274 286 287 290 290 292 288 288 287 290 302 312 313 316 316 303 285 277 266 249 235 230 235 253 279 298 307 302 7 33 3 7 15 19 24 30 34 40 46 50 54 56 55
170 154 142 136 124 128 113 355 307 285 283 295 301 297 292 295 292 292 296 301 306 303 308 315 323 334 334 324 221 183 192 203 220 239 262 282 287 287 305 14 38 10 7 12 14 25 30 32 34 39 42 46 50 53
157 154 164 162 136 24 326 314 298 297 294 294 296 290 288 287 290 288 291 303 311 308 295 293 300 307 302 302 241 208 205 219 238 257 273 272 259 241 44 15 360 349 357 4 13 24 28 27 28 33 34 36 38 42
165 175 180 198 228 288 301 308 302 289 299 299 298 297 288 292 287 285 287 295 291 281 276 265 266 268 267 262 245 245 242 247 254 263 256 237 171 81 31 336 349 359 5 17 27 27 24 22 23 24 26 27 28 32
178 190 198 196 257 267 263 297 292 287 294 301 290 295 300 299 289 264 269 281 287 298 272 255 249 243 239 236 239 247 254 249 240 222 188 120 89 68 43 37 41 44 42 40 38 38 34 29 28 31 33 33 31 28
213 224 244 266 277 275 281 289 288 286 291 296 299 299 292 256 257 276 298 298 290 272 248 241 238 230 223 221 224 231 229 209 180 140 114 106 105 99 90 78 71 64 57 52 50 43 39 38 34 31 29 25 20 17
245 262 280 284 273 276 279 283 284 291 292 292 285 277 245 240 280 306 313 313 319 298 249 230 229 230 224 217 209 198 183 163 141 134 129 119 110 98 86 73 62 53 45 40 38 32 27 21 16 12 8 5 1 357
261 278 276 273 273 275 277 280 283 289 292 285 276 268 266 279 284 288 287 286 289 290 276 237 227 227 225 214 200 188 174 157 151 146 138 127 111 86 65 50 44 38 34 31 27 23 16 11 7 4 0 357 352 347
263 266 267 272 276 278 282 281 287 288 287 282 276 262 260 273 285 282 277 280 279 270 254 234 226 230 225 210 198 188 172 163 163 161 144 114 69 34 16 13 13 13 11 7 6 6 5 4 2 1 358 354 349 343
257 265 270 272 276 281 281 284 286 284 278 267 256 256 264 274 279 280 274 265 256 243 221 214 216 222 217 205 197 184 175 176 177 169 151 117 23 10 12 12 7 360 353 349 349 351 354 357 1 1 359 355 352 350
274 276 274 274 280 285 287 285 279 268 260 242 240 252 262 269 267 269 255 252 247 230 212 205 205 204 203 197 187 184 186 186 187 192 207 234 299 351 358 357 1 357 344 337 335 332 335 341 351 358 3 3 359 354
274 272 271 277 289 294 286 275 261 241 228 229 241 244 244 241 232 234 238 239 239 235 222 206 207 208 199 191 189 193 199 205 213 225 244 260 267 294 312 328 338 340 343 337 325 321 321 322 328 336 342 346 348 350